QPF
0.01 0.01 0.01 0.02 0.02 0.01 0.02 0.01 0.01 0.01 0.01 0.01 0.02 0.02 0.03 0.03 0.02 0.01 0.01 0.01 0.01 0.01 0.01 0.01 0.01 0.01 0.01 0.01 0.02 0.03 0.05 0.05 0.05 0.05 0.05 0.04 0.02 0.02 0.03 0.04 0.05 0.06 0.06 0.06
0.01 0.01 0.02 0.01 0.01 0.01 0.01 0.01 0.00 0.01 0.01 0.02 0.02 0.02 0.04 0.03 0.02 0.02 0.01 0.01 0.01 0.01 0.01 0.01 0.01 0.01 0.01 0.01 0.01 0.03 0.04 0.04 0.04 0.05 0.05 0.04 0.03 0.03 0.04 0.05 0.06 0.07 0.07 0.06
0.00 0.01 0.02 0.03 0.01 0.01 0.01 0.00 0.01 0.01 0.02 0.03 0.03 0.02 0.02 0.02 0.01 0.02 0.02 0.01 0.01 0.01 0.01 0.01 0.01 0.01 0.01 0.01 0.02 0.02 0.03 0.03 0.03 0.04 0.04 0.04 0.04 0.04 0.06 0.06 0.06 0.06 0.06 0.06
0.00 0.00 0.02 0.03 0.02 0.01 0.01 0.01 0.01 0.02 0.02 0.02 0.03 0.03 0.03 0.03 0.02 0.01 0.02 0.01 0.01 0.01 0.01 0.00 0.01 0.01 0.01 0.01 0.02 0.02 0.02 0.02 0.02 0.03 0.04 0.05 0.05 0.05 0.06 0.07 0.07 0.05 0.05 0.05
0.01 0.01 0.01 0.02 0.02 0.02 0.02 0.03 0.04 0.02 0.02 0.01 0.01 0.03 0.03 0.03 0.03 0.02 0.01 0.01 0.01 0.01 0.01 0.01 0.01 0.01 0.02 0.01 0.02 0.02 0.03 0.02 0.02 0.02 0.03 0.04 0.04 0.04 0.05 0.05 0.04 0.04 0.04 0.05
0.01 0.01 0.02 0.03 0.02 0.01 0.02 0.07 0.06 0.02 0.01 0.01 0.02 0.02 0.02 0.03 0.04 0.03 0.02 0.01 0.01 0.01 0.01 0.01 0.02 0.03 0.02 0.02 0.02 0.03 0.03 0.02 0.02 0.02 0.02 0.02 0.03 0.04 0.05 0.05 0.04 0.04 0.04 0.04
0.01 0.02 0.03 0.03 0.02 0.02 0.03 0.05 0.03 0.01 0.02 0.03 0.03 0.03 0.04 0.03 0.03 0.03 0.02 0.01 0.01 0.02 0.03 0.04 0.04 0.04 0.03 0.02 0.03 0.03 0.03 0.02 0.02 0.03 0.03 0.03 0.03 0.03 0.05 0.04 0.04 0.04 0.04 0.03
0.02 0.03 0.03 0.03 0.02 0.02 0.02 0.02 0.03 0.02 0.02 0.02 0.03 0.04 0.04 0.03 0.03 0.03 0.04 0.04 0.07 0.10 0.10 0.06 0.05 0.03 0.03 0.02 0.03 0.02 0.02 0.03 0.03 0.04 0.05 0.05 0.05 0.04 0.03 0.03 0.03 0.03 0.04 0.04
0.04 0.04 0.03 0.03 0.03 0.02 0.02 0.02 0.03 0.04 0.03 0.02 0.03 0.04 0.04 0.03 0.03 0.06 0.08 0.10 0.11 0.07 0.04 0.03 0.04 0.03 0.02 0.03 0.03 0.03 0.04 0.03 0.04 0.05 0.05 0.04 0.04 0.04 0.03 0.03 0.02 0.02 0.02 0.02
0.05 0.05 0.03 0.03 0.02 0.02 0.02 0.02 0.02 0.02 0.03 0.02 0.03 0.04 0.05 0.04 0.03 0.04 0.06 0.05 0.05 0.04 0.03 0.03 0.04 0.05 0.04 0.04 0.04 0.04 0.04 0.04 0.05 0.06 0.06 0.06 0.06 0.05 0.04 0.03 0.03 0.02 0.02 0.02
0.08 0.08 0.05 0.05 0.03 0.02 0.01 0.01 0.01 0.02 0.02 0.02 0.02 0.03 0.05 0.07 0.05 0.04 0.05 0.06 0.06 0.07 0.05 0.03 0.04 0.04 0.05 0.05 0.05 0.04 0.04 0.05 0.06 0.06 0.06 0.06 0.06 0.05 0.05 0.04 0.04 0.04 0.04 0.03
0.06 0.07 0.06 0.07 0.05 0.03 0.01 0.01 0.01 0.02 0.03 0.04 0.04 0.03 0.03 0.04 0.04 0.04 0.04 0.04 0.04 0.05 0.05 0.04 0.04 0.04 0.05 0.05 0.05 0.05 0.05 0.05 0.07 0.07 0.05 0.05 0.05 0.05 0.06 0.06 0.06 0.06 0.07 0.07
0.05 0.04 0.05 0.05 0.05 0.04 0.02 0.01 0.02 0.02 0.04 0.04 0.05 0.05 0.04 0.04 0.04 0.04 0.04 0.04 0.04 0.04 0.04 0.04 0.04 0.04 0.04 0.04 0.03 0.04 0.04 0.04 0.04 0.05 0.05 0.05 0.05 0.06 0.08 0.08 0.06 0.05 0.05 0.05
0.05 0.05 0.05 0.05 0.06 0.06 0.04 0.02 0.02 0.03 0.04 0.04 0.05 0.06 0.07 0.06 0.06 0.06 0.06 0.06 0.05 0.04 0.03 0.03 0.02 0.02 0.02 0.02 0.03 0.03 0.03 0.03 0.04 0.04 0.04 0.06 0.06 0.07 0.07 0.09 0.08 0.06 0.06 0.05
0.06 0.05 0.07 0.08 0.08 0.08 0.06 0.04 0.03 0.04 0.05 0.06 0.06 0.05 0.07 0.07 0.06 0.05 0.05 0.04 0.04 0.03 0.02 0.01 0.01 0.01 0.02 0.01 0.01 0.02 0.02 0.03 0.03 0.03 0.03 0.04 0.06 0.07 0.07 0.07 0.07 0.08 0.08 0.08
0.07 0.06 0.06 0.09 0.10 0.10 0.06 0.04 0.04 0.04 0.05 0.06 0.07 0.05 0.06 0.06 0.06 0.05 0.04 0.03 0.02 0.02 0.02 0.02 0.01 0.01 0.01 0.01 0.01 0.01 0.02 0.02 0.02 0.02 0.02 0.02 0.03 0.07 0.10 0.07 0.06 0.06 0.07 0.07
0.06 0.06 0.06 0.06 0.07 0.07 0.05 0.04 0.03 0.02 0.03 0.06 0.07 0.07 0.05 0.05 0.05 0.04 0.04 0.03 0.03 0.02 0.02 0.01 0.01 0.01 0.01 0.01 0.01 0.01 0.02 0.02 0.02 0.01 0.01 0.02 0.03 0.07 0.12 0.12 0.06 0.05 0.06 0.05
0.05 0.06 0.05 0.04 0.04 0.04 0.03 0.02 0.01 0.01 0.03 0.04 0.04 0.04 0.05 0.05 0.04 0.03 0.03 0.03 0.03 0.02 0.02 0.02 0.01 0.01 0.01 0.01 0.01 0.01 0.01 0.01 0.01 0.01 0.01 0.01 0.02 0.03 0.07 0.08 0.06 0.06 0.07 0.07
0.08 0.08 0.07 0.05 0.04 0.04 0.02 0.01 0.01 0.01 0.03 0.04 0.03 0.02 0.03 0.03 0.02 0.03 0.03 0.03 0.03 0.03 0.02 0.02 0.02 0.02 0.02 0.01 0.01 0.01 0.01 0.01 0.02 0.01 0.01 0.01 0.01 0.02 0.03 0.04 0.03 0.02 0.02 0.03
0.05 0.06 0.06 0.04 0.04 0.03 0.02 0.02 0.02 0.03 0.06 0.06 0.03 0.02 0.03 0.03 0.02 0.02 0.02 0.03 0.04 0.04 0.04 0.03 0.02 0.02 0.03 0.02 0.01 0.01 0.01 0.02 0.02 0.02 0.02 0.01 0.01 0.01 0.02 0.02 0.02 0.01 0.01 0.01
0.04 0.04 0.04 0.03 0.03 0.03 0.03 0.03 0.02 0.03 0.05 0.05 0.02 0.02 0.02 0.03 0.03 0.03 0.03 0.03 0.04 0.04 0.04 0.03 0.02 0.02 0.01 0.01 0.01 0.01 0.01 0.02 0.02 0.02 0.02 0.02 0.02 0.01 0.01 0.02 0.02 0.01 0.01 0.01
0.07 0.05 0.05 0.06 0.05 0.04 0.03 0.01 0.01 0.02 0.02 0.03 0.02 0.01 0.01 0.02 0.03 0.03 0.03 0.02 0.02 0.03 0.03 0.02 0.02 0.01 0.01 0.01 0.00 0.00 0.01 0.01 0.01 0.01 0.01 0.01 0.01 0.01 0.01 0.01 0.01 0.01 0.01 0.01
0.07 0.05 0.05 0.05 0.04 0.03 0.02 0.01 0.01 0.02 0.02 0.02 0.02 0.02 0.02 0.02 0.02 0.03 0.03 0.02 0.03 0.03 0.02 0.03 0.02 0.01 0.01 0.01 0.01 0.01 0.01 0.01 0.01 0.01 0.01 0.01 0.01 0.01 0.01 0.01 0.00 0.01 0.01 0.02
0.04 0.04 0.04 0.03 0.02 0.02 0.02 0.02 0.02 0.02 0.02 0.03 0.03 0.03 0.03 0.04 0.04 0.04 0.03 0.03 0.03 0.03 0.02 0.02 0.02 0.02 0.02 0.02 0.01 0.01 0.00 0.00 0.00 0.01 0.01 0.01 0.01 0.01 0.01 0.01 0.01 0.01 0.02 0.02
0.04 0.04 0.04 0.03 0.03 0.03 0.03 0.03 0.03 0.03 0.02 0.04 0.05 0.05 0.04 0.03 0.03 0.03 0.03 0.03 0.03 0.03 0.02 0.02 0.02 0.02 0.01 0.01 0.01 0.00 0.00 0.00 0.01 0.01 0.01 0.02 0.02 0.02 0.02 0.01 0.02 0.02 0.03 0.03
0.03 0.03 0.03 0.04 0.04 0.04 0.04 0.04 0.03 0.02 0.02 0.03 0.03 0.03 0.03 0.04 0.04 0.04 0.04 0.04 0.04 0.04 0.03 0.02 0.02 0.02 0.01 0.01 0.01 0.01 0.01 0.01 0.01 0.01 0.02 0.02 0.02 0.01 0.01 0.02 0.02 0.03 0.03 0.03
0.03 0.02 0.02 0.02 0.03 0.03 0.03 0.03 0.02 0.02 0.02 0.02 0.02 0.03 0.04 0.05 0.06 0.07 0.09 0.08 0.06 0.04 0.03 0.03 0.03 0.03 0.03 0.02 0.02 0.02 0.02 0.02 0.01 0.02 0.01 0.01 0.01 0.01 0.01 0.01 0.02 0.03 0.03 0.03
MSLP
1005.56 1006.15 1006.77 1007.41 1008.08 1008.75 1009.37 1009.88 1010.25 1010.42 1010.38 1010.15 1009.74 1009.22 1008.64 1008.05 1007.49 1006.98 1006.52 1006.07 1005.61 1005.10 1004.52 1003.87 1003.16 1002.42 1001.72 1001.10 1000.63 1000.35 1000.28 1000.43 1000.78 1001.31 1001.97 1002.72 1003.52 1004.31 1005.07 1005.78 1006.43 1007.01 1007.52 1007.98
1006.19 1006.85 1007.46 1008.01 1008.53 1009.00 1009.41 1009.73 1009.94 1010.02 1009.95 1009.74 1009.40 1008.96 1008.45 1007.91 1007.36 1006.81 1006.25 1005.70 1005.11 1004.50 1003.84 1003.14 1002.44 1001.75 1001.12 1000.59 1000.22 1000.03 1000.03 1000.24 1000.62 1001.17 1001.83 1002.58 1003.36 1004.15 1004.91 1005.62 1006.28 1006.86 1007.39 1007.85
1006.95 1007.67 1008.27 1008.76 1009.16 1009.46 1009.69 1009.84 1009.90 1009.87 1009.74 1009.51 1009.18 1008.77 1008.28 1007.73 1007.14 1006.51 1005.86 1005.19 1004.50 1003.80 1003.09 1002.39 1001.72 1001.12 1000.60 1000.22 999.98 999.90 1000.01 1000.28 1000.70 1001.26 1001.92 1002.64 1003.40 1004.16 1004.90 1005.60 1006.24 1006.82 1007.34 1007.80
1007.74 1008.49 1009.09 1009.53 1009.83 1010.02 1010.10 1010.11 1010.05 1009.92 1009.73 1009.45 1009.10 1008.67 1008.16 1007.57 1006.92 1006.22 1005.47 1004.71 1003.93 1003.17 1002.45 1001.78 1001.18 1000.68 1000.31 1000.07 999.97 1000.02 1000.22 1000.56 1001.02 1001.58 1002.22 1002.90 1003.62 1004.33 1005.03 1005.70 1006.31 1006.88 1007.39 1007.84
1008.42 1009.17 1009.74 1010.15 1010.39 1010.50 1010.50 1010.42 1010.27 1010.07 1009.82 1009.50 1009.12 1008.67 1008.12 1007.50 1006.80 1006.03 1005.22 1004.39 1003.57 1002.79 1002.08 1001.45 1000.95 1000.56 1000.32 1000.22 1000.25 1000.41 1000.70 1001.08 1001.56 1002.10 1002.70 1003.34 1003.99 1004.65 1005.29 1005.91 1006.49 1007.03 1007.51 1007.93
1008.85 1009.57 1010.12 1010.50 1010.72 1010.79 1010.75 1010.62 1010.44 1010.21 1009.93 1009.60 1009.21 1008.74 1008.19 1007.55 1006.82 1006.03 1005.19 1004.34 1003.52 1002.75 1002.07 1001.52 1001.09 1000.81 1000.68 1000.69 1000.82 1001.06 1001.40 1001.81 1002.28 1002.79 1003.34 1003.91 1004.50 1005.09 1005.66 1006.22 1006.76 1007.25 1007.69 1008.08
1008.98 1009.64 1010.16 1010.52 1010.73 1010.81 1010.77 1010.66 1010.49 1010.27 1010.01 1009.70 1009.33 1008.89 1008.36 1007.74 1007.04 1006.26 1005.44 1004.62 1003.83 1003.10 1002.48 1001.99 1001.64 1001.44 1001.38 1001.46 1001.65 1001.94 1002.29 1002.69 1003.13 1003.60 1004.09 1004.59 1005.10 1005.61 1006.12 1006.61 1007.09 1007.53 1007.93 1008.28
1008.77 1009.36 1009.85 1010.22 1010.45 1010.56 1010.58 1010.53 1010.41 1010.25 1010.05 1009.80 1009.49 1009.11 1008.64 1008.08 1007.44 1006.73 1005.98 1005.22 1004.49 1003.83 1003.27 1002.83 1002.54 1002.39 1002.37 1002.48 1002.69 1002.97 1003.31 1003.68 1004.07 1004.48 1004.90 1005.33 1005.76 1006.20 1006.63 1007.06 1007.47 1007.86 1008.20 1008.51
1008.29 1008.83 1009.30 1009.68 1009.96 1010.14 1010.24 1010.27 1010.25 1010.18 1010.07 1009.91 1009.69 1009.40 1009.03 1008.57 1008.03 1007.42 1006.77 1006.10 1005.45 1004.86 1004.36 1003.97 1003.71 1003.58 1003.57 1003.66 1003.85 1004.10 1004.39 1004.71 1005.05 1005.39 1005.74 1006.10 1006.46 1006.82 1007.18 1007.54 1007.88 1008.21 1008.50 1008.76
1007.67 1008.16 1008.63 1009.04 1009.39 1009.66 1009.86 1009.99 1010.08 1010.12 1010.12 1010.07 1009.96 1009.78 1009.53 1009.19 1008.77 1008.28 1007.75 1007.18 1006.63 1006.11 1005.66 1005.31 1005.05 1004.91 1004.87 1004.93 1005.06 1005.25 1005.48 1005.74 1006.01 1006.29 1006.58 1006.86 1007.15 1007.45 1007.74 1008.03 1008.31 1008.57 1008.81 1009.02
1007.05 1007.52 1008.01 1008.46 1008.88 1009.23 1009.54 1009.78 1009.98 1010.13 1010.23 1010.29 1010.29 1010.23 1010.10 1009.89 1009.60 1009.24 1008.83 1008.37 1007.91 1007.46 1007.06 1006.72 1006.46 1006.28 1006.20 1006.19 1006.26 1006.38 1006.54 1006.73 1006.94 1007.16 1007.38 1007.61 1007.84 1008.07 1008.29 1008.52 1008.73 1008.93 1009.12 1009.29
1006.56 1007.04 1007.55 1008.06 1008.54 1008.98 1009.37 1009.70 1009.99 1010.23 1010.42 1010.58 1010.68 1010.72 1010.70 1010.61 1010.45 1010.22 1009.92 1009.57 1009.20 1008.81 1008.44 1008.11 1007.83 1007.62 1007.48 1007.41 1007.41 1007.45 1007.55 1007.67 1007.82 1007.98 1008.16 1008.33 1008.50 1008.67 1008.83 1008.99 1009.14 1009.29 1009.42 1009.54
1006.29 1006.79 1007.33 1007.88 1008.41 1008.91 1009.36 1009.77 1010.12 1010.42 1010.68 1010.90 1011.08 1011.21 1011.29 1011.30 1011.25 1011.13 1010.94 1010.70 1010.40 1010.07 1009.74 1009.41 1009.12 1008.87 1008.68 1008.54 1008.47 1008.46 1008.49 1008.56 1008.65 1008.77 1008.89 1009.02 1009.14 1009.25 1009.36 1009.45 1009.54 1009.63 1009.71 1009.79
1006.24 1006.76 1007.33 1007.91 1008.48 1009.02 1009.51 1009.94 1010.33 1010.67 1010.97 1011.23 1011.46 1011.66 1011.81 1011.91 1011.96 1011.93 1011.84 1011.68 1011.46 1011.19 1010.89 1010.57 1010.27 1009.99 1009.76 1009.57 1009.45 1009.38 1009.36 1009.38 1009.44 1009.51 1009.60 1009.68 1009.75 1009.82 1009.87 1009.91 1009.94 1009.97 1010.00 1010.03
1006.37 1006.91 1007.50 1008.10 1008.68 1009.23 1009.73 1010.18 1010.57 1010.92 1011.24 1011.52 1011.78 1012.02 1012.23 1012.40 1012.52 1012.58 1012.57 1012.49 1012.33 1012.12 1011.85 1011.56 1011.25 1010.96 1010.70 1010.48 1010.32 1010.21 1010.15 1010.14 1010.16 1010.21 1010.26 1010.31 1010.35 1010.38 1010.38 1010.37 1010.35 1010.33 1010.31 1010.29
1006.60 1007.16 1007.76 1008.36 1008.95 1009.49 1009.99 1010.42 1010.81 1011.15 1011.46 1011.75 1012.03 1012.29 1012.54 1012.76 1012.94 1013.06 1013.12 1013.11 1013.01 1012.85 1012.62 1012.35 1012.06 1011.76 1011.49 1011.25 1011.06 1010.93 1010.85 1010.82 1010.83 1010.85 1010.88 1010.91 1010.93 1010.92 1010.89 1010.84 1010.78 1010.70 1010.64 1010.58
1006.85 1007.42 1008.03 1008.64 1009.22 1009.75 1010.23 1010.64 1011.01 1011.34 1011.64 1011.92 1012.20 1012.48 1012.75 1013.00 1013.22 1013.39 1013.50 1013.54 1013.49 1013.37 1013.18 1012.93 1012.66 1012.37 1012.10 1011.87 1011.67 1011.53 1011.45 1011.41 1011.40 1011.42 1011.45 1011.47 1011.47 1011.44 1011.39 1011.32 1011.22 1011.12 1011.01 1010.91
1007.07 1007.66 1008.28 1008.88 1009.46 1009.98 1010.44 1010.84 1011.19 1011.50 1011.79 1012.06 1012.34 1012.62 1012.89 1013.16 1013.40 1013.59 1013.73 1013.79 1013.78 1013.69 1013.53 1013.31 1013.06 1012.79 1012.53 1012.30 1012.12 1011.99 1011.91 1011.87 1011.88 1011.90 1011.93 1011.96 1011.96 1011.94 1011.88 1011.80 1011.69 1011.57 1011.43 1011.30
1007.25 1007.87 1008.49 1009.11 1009.68 1010.20 1010.65 1011.04 1011.38 1011.68 1011.95 1012.21 1012.47 1012.74 1013.00 1013.26 1013.49 1013.69 1013.83 1013.90 1013.89 1013.81 1013.67 1013.47 1013.24 1013.00 1012.77 1012.56 1012.40 1012.29 1012.23 1012.22 1012.24 1012.29 1012.34 1012.38 1012.40 1012.40 1012.36 1012.28 1012.18 1012.05 1011.90 1011.74
1007.43 1008.07 1008.72 1009.34 1009.92 1010.43 1010.88 1011.26 1011.59 1011.88 1012.14 1012.38 1012.62 1012.86 1013.10 1013.32 1013.52 1013.69 1013.81 1013.86 1013.85 1013.77 1013.64 1013.46 1013.25 1013.03 1012.83 1012.66 1012.53 1012.46 1012.43 1012.45 1012.50 1012.58 1012.66 1012.74 1012.80 1012.82 1012.81 1012.76 1012.67 1012.55 1012.39 1012.22
1007.65 1008.31 1008.97 1009.60 1010.18 1010.69 1011.14 1011.52 1011.84 1012.11 1012.35 1012.57 1012.77 1012.97 1013.16 1013.34 1013.49 1013.61 1013.69 1013.71 1013.68 1013.59 1013.46 1013.29 1013.11 1012.93 1012.77 1012.64 1012.56 1012.53 1012.55 1012.61 1012.71 1012.82 1012.95 1013.06 1013.15 1013.21 1013.23 1013.22 1013.15 1013.05 1012.90 1012.73
1007.95 1008.62 1009.28 1009.91 1010.48 1010.98 1011.41 1011.77 1012.07 1012.32 1012.54 1012.72 1012.89 1013.04 1013.17 1013.29 1013.39 1013.45 1013.47 1013.46 1013.40 1013.30 1013.18 1013.04 1012.89 1012.76 1012.65 1012.58 1012.56 1012.58 1012.65 1012.76 1012.90 1013.06 1013.22 1013.37 1013.50 1013.59 1013.65 1013.66 1013.62 1013.54 1013.40 1013.22
1008.32 1008.99 1009.64 1010.24 1010.78 1011.25 1011.65 1011.98 1012.25 1012.47 1012.65 1012.79 1012.91 1013.01 1013.09 1013.15 1013.19 1013.20 1013.18 1013.13 1013.06 1012.97 1012.86 1012.76 1012.66 1012.59 1012.55 1012.55 1012.59 1012.68 1012.81 1012.97 1013.15 1013.35 1013.54 1013.71 1013.86 1013.98 1014.06 1014.09 1014.07 1013.99 1013.86 1013.68
1008.75 1009.39 1009.99 1010.53 1011.02 1011.43 1011.78 1012.07 1012.30 1012.48 1012.62 1012.72 1012.80 1012.85 1012.89 1012.90 1012.90 1012.87 1012.83 1012.77 1012.71 1012.64 1012.57 1012.52 1012.50 1012.50 1012.54 1012.62 1012.74 1012.90 1013.09 1013.29 1013.51 1013.73 1013.93 1014.12 1014.28 1014.39 1014.47 1014.50 1014.48 1014.40 1014.26 1014.07
1009.18 1009.76 1010.28 1010.74 1011.15 1011.49 1011.77 1012.00 1012.17 1012.31 1012.41 1012.48 1012.53 1012.56 1012.57 1012.56 1012.54 1012.51 1012.47 1012.43 1012.40 1012.37 1012.37 1012.40 1012.46 1012.55 1012.68 1012.85 1013.05 1013.28 1013.52 1013.76 1014.00 1014.23 1014.43 1014.60 1014.74 1014.83 1014.88 1014.89 1014.84 1014.74 1014.57 1014.35
1009.55 1010.03 1010.46 1010.82 1011.13 1011.38 1011.58 1011.74 1011.87 1011.97 1012.04 1012.10 1012.14 1012.16 1012.17 1012.17 1012.17 1012.16 1012.15 1012.16 1012.18 1012.23 1012.31 1012.43 1012.59 1012.78 1013.00 1013.26 1013.53 1013.82 1014.10 1014.37 1014.61 1014.83 1015.01 1015.15 1015.24 1015.29 1015.29 1015.24 1015.14 1014.99 1014.78 1014.52
1009.81 1010.18 1010.49 1010.75 1010.95 1011.12 1011.24 1011.35 1011.44 1011.51 1011.58 1011.63 1011.69 1011.73 1011.77 1011.81 1011.85 1011.89 1011.95 1012.02 1012.12 1012.26 1012.43 1012.64 1012.89 1013.17 1013.49 1013.82 1014.15 1014.48 1014.79 1015.07 1015.30 1015.49 1015.63 1015.71 1015.74 1015.72 1015.64 1015.52 1015.35 1015.14 1014.87 1014.55
Thickness
5754 5764 5768 5768 5771 5772 5763 5758 5750 5758 5763 5771 5781 5788 5792 5794 5794 5792 5790 5791 5791 5790 5790 5790 5789 5788 5788 5786 5785 5783 5780 5777 5774 5772 5769 5767 5764 5761 5758 5756 5754 5751 5748 5745
5745 5759 5762 5762 5769 5771 5769 5768 5764 5765 5764 5779 5783 5786 5786 5788 5788 5785 5785 5787 5788 5787 5786 5784 5783 5782 5782 5780 5779 5778 5775 5773 5770 5767 5764 5761 5759 5757 5754 5751 5749 5746 5743 5741
5723 5742 5748 5738 5757 5762 5762 5767 5766 5757 5763 5774 5773 5776 5777 5781 5784 5783 5783 5783 5782 5783 5782 5780 5779 5779 5777 5776 5775 5772 5770 5768 5766 5763 5760 5757 5755 5752 5749 5746 5744 5741 5738 5735
5713 5722 5711 5734 5764 5767 5762 5762 5767 5767 5770 5773 5772 5774 5777 5779 5778 5778 5779 5778 5778 5777 5776 5776 5775 5774 5774 5772 5769 5766 5764 5762 5760 5758 5755 5753 5750 5747 5745 5742 5739 5736 5733 5730
5699 5700 5711 5736 5754 5756 5750 5745 5761 5761 5764 5768 5771 5767 5765 5774 5776 5775 5776 5775 5774 5773 5772 5770 5769 5769 5766 5764 5762 5760 5758 5757 5756 5754 5750 5747 5744 5742 5740 5737 5734 5731 5728 5725
5695 5694 5695 5723 5752 5762 5751 5731 5755 5759 5757 5759 5759 5743 5748 5766 5769 5767 5769 5770 5768 5767 5765 5762 5761 5761 5758 5755 5753 5752 5753 5753 5752 5749 5746 5743 5740 5737 5734 5731 5728 5726 5723 5720
5689 5690 5702 5732 5750 5753 5722 5724 5750 5754 5754 5753 5749 5748 5753 5758 5759 5761 5762 5762 5761 5759 5756 5754 5754 5753 5749 5747 5746 5747 5747 5747 5745 5744 5741 5738 5735 5732 5728 5725 5722 5719 5716 5714
5684 5683 5695 5733 5740 5731 5730 5743 5748 5749 5749 5748 5747 5748 5749 5750 5751 5753 5753 5753 5752 5748 5746 5746 5746 5743 5740 5738 5739 5740 5739 5738 5737 5736 5735 5733 5728 5725 5722 5718 5714 5712 5709 5707
5686 5691 5712 5727 5731 5736 5740 5738 5741 5742 5744 5744 5741 5740 5742 5741 5743 5745 5744 5743 5742 5740 5737 5737 5736 5735 5731 5730 5731 5731 5729 5728 5727 5727 5726 5724 5721 5717 5714 5711 5708 5705 5703 5700
5685 5695 5707 5716 5725 5730 5733 5734 5738 5740 5740 5740 5736 5735 5734 5734 5735 5735 5734 5733 5733 5730 5727 5725 5726 5725 5724 5723 5723 5721 5719 5717 5717 5716 5715 5714 5712 5711 5707 5704 5701 5699 5697 5695
5679 5690 5699 5707 5713 5718 5724 5728 5731 5734 5734 5733 5731 5727 5726 5725 5726 5726 5726 5725 5723 5720 5717 5716 5716 5716 5715 5715 5714 5711 5709 5708 5706 5705 5704 5704 5703 5703 5703 5701 5699 5695 5692 5690
5673 5683 5685 5692 5704 5711 5713 5716 5720 5722 5722 5723 5723 5720 5719 5717 5718 5717 5716 5715 5712 5710 5708 5707 5707 5706 5705 5705 5703 5701 5699 5698 5697 5695 5695 5695 5695 5694 5696 5695 5694 5691 5689 5687
5683 5687 5688 5693 5698 5702 5705 5707 5711 5713 5713 5712 5712 5712 5710 5708 5707 5707 5707 5705 5703 5701 5700 5698 5697 5696 5696 5695 5694 5692 5689 5688 5688 5688 5687 5687 5687 5685 5684 5685 5685 5683 5682 5680
5684 5684 5681 5684 5686 5693 5697 5700 5701 5703 5704 5704 5703 5703 5701 5700 5699 5698 5696 5696 5695 5693 5691 5690 5688 5686 5686 5686 5685 5683 5682 5682 5680 5679 5679 5679 5679 5679 5677 5675 5673 5673 5673 5671
5676 5678 5676 5679 5681 5684 5688 5690 5688 5689 5691 5692 5693 5692 5692 5690 5688 5687 5688 5688 5687 5685 5683 5682 5680 5678 5678 5677 5676 5674 5673 5673 5672 5672 5672 5672 5671 5671 5669 5668 5666 5664 5663 5662
5668 5671 5672 5672 5672 5676 5678 5679 5677 5679 5681 5681 5682 5682 5683 5682 5681 5680 5680 5679 5677 5674 5674 5673 5672 5671 5671 5669 5668 5666 5665 5666 5665 5664 5664 5663 5662 5661 5660 5659 5657 5655 5653 5651
5657 5657 5660 5662 5664 5668 5670 5672 5672 5672 5673 5672 5673 5674 5674 5673 5672 5671 5670 5670 5669 5667 5667 5666 5665 5665 5664 5662 5660 5658 5657 5656 5658 5656 5655 5654 5653 5651 5650 5649 5648 5646 5645 5645
5657 5658 5659 5658 5659 5661 5663 5666 5667 5668 5667 5668 5667 5666 5665 5663 5662 5662 5662 5661 5660 5659 5658 5658 5658 5658 5656 5654 5652 5650 5649 5648 5647 5646 5645 5645 5644 5643 5641 5639 5638 5637 5636 5635
5654 5655 5656 5656 5657 5657 5657 5659 5661 5662 5662 5661 5659 5658 5657 5657 5656 5655 5654 5651 5649 5648 5649 5651 5651 5649 5648 5647 5646 5643 5641 5640 5639 5638 5637 5637 5636 5634 5632 5630 5628 5627 5627 5625
5650 5651 5652 5652 5653 5652 5652 5653 5655 5655 5655 5655 5653 5651 5649 5649 5648 5647 5645 5643 5642 5643 5644 5644 5642 5641 5640 5640 5639 5636 5634 5633 5632 5630 5629 5628 5626 5625 5623 5622 5620 5618 5616 5614
5646 5646 5647 5646 5646 5647 5647 5648 5649 5648 5648 5648 5646 5644 5643 5642 5641 5640 5637 5635 5637 5638 5637 5637 5636 5634 5633 5633 5631 5628 5627 5625 5623 5622 5621 5619 5618 5616 5613 5612 5611 5609 5607 5604
5641 5641 5641 5641 5640 5639 5641 5643 5643 5643 5643 5641 5641 5639 5637 5636 5635 5634 5634 5633 5633 5633 5631 5630 5630 5629 5627 5625 5623 5621 5620 5618 5616 5614 5612 5611 5609 5607 5605 5603 5601 5600 5597 5595
5637 5636 5636 5635 5634 5634 5635 5636 5637 5637 5637 5636 5635 5633 5631 5630 5629 5627 5626 5628 5628 5627 5625 5623 5623 5622 5620 5618 5616 5614 5612 5611 5609 5607 5605 5602 5600 5598 5596 5593 5591 5589 5587 5585
5632 5631 5630 5630 5629 5628 5628 5630 5631 5632 5632 5631 5630 5629 5627 5624 5624 5624 5623 5623 5622 5620 5618 5617 5616 5615 5613 5610 5609 5607 5604 5603 5601 5598 5596 5594 5591 5589 5586 5584 5582 5580 5577 5575
5626 5625 5625 5624 5622 5622 5623 5624 5624 5624 5623 5622 5622 5623 5622 5621 5619 5618 5617 5617 5616 5614 5612 5611 5610 5608 5606 5604 5602 5600 5597 5595 5593 5591 5589 5586 5583 5580 5577 5575 5573 5570 5568 5566
5621 5621 5621 5620 5619 5619 5619 5618 5616 5616 5615 5615 5614 5615 5615 5615 5614 5613 5611 5609 5609 5607 5605 5604 5602 5601 5599 5597 5595 5593 5591 5589 5586 5583 5580 5577 5575 5572 5569 5566 5564 5561 5559 5556
5617 5616 5615 5615 5615 5615 5615 5613 5612 5611 5610 5609 5608 5608 5608 5608 5608 5606 5605 5603 5601 5599 5598 5596 5595 5594 5592 5590 5588 5586 5584 5581 5578 5575 5573 5570 5567 5564 5562 5559 5555 5553 5550 5546